Location: Hilton Head Island
(32.2163°N, 80.7526°W)
Time: 06:05:49
(UTC-04:00)

Vanguard 2 - Pass Details

Date: 20 February 2026
Orbit: 553 x 2896 km, 32.9° (Epoch: 10 March)

Event Time Altitude Azimuth Distance (km) Brightness Sun altitude
Exits shadow 05:53:46 18° 253° (WSW) 2,234 9.3 -14.8°
Maximum altitude 05:58:34 79° 169° (S) 794 7.6 -13.8°
Drops below altitude 10° 06:03:02 10° 82° (E) 2,002 11.0 -12.8°
Sets 06:05:01 0° 81° (E) 2,806 12.1 -12.4°
